Regional Weather Roundup
Issued by NWS

Home | Current Version | Previous Version | Text Only | Print | Product List | Glossary On
Versions: 1 2 3 4 5 6 7 8 9 10 11 12 13 14 15 16 17 18 19 20 21 22 23 24 25 26 27 28 29 30 31 32 33 34 35 36 37 38 39 40 41 42 43 44 45 46 47 48 49 50
000
ASUS45 KBOI 232010
RWRID

IDAHO REGIONAL WEATHER ROUNDUP
NATIONAL WEATHER SERVICE BOISE ID
100 PM MST THU FEB 23 2017

NOTE: "FAIR" INDICATES FEW OR NO CLOUDS BELOW 12000 FEET
WITH NO SIGNIFICANT WEATHER AND/OR OBSTRUCTIONS TO VISIBILITY

IDZ012-014-232100-
SOUTHWEST IDAHO


CITY           SKY/WX    TMP DP  RH WIND       PRES   REMARKS
BOISE          LGT SNOW  33  25  72 NW26G32   29.90F WCI  20
CALDWELL       CLOUDY    38  24  57 W29       29.95F WCI  26
MOUNTAIN HOME  PTSUNNY   34  25  68 NW36G44   29.88S WCI  20
$$

IDZ016-017-232100-
SOUTHCENTRAL IDAHO


CITY           SKY/WX    TMP DP  RH WIND       PRES   REMARKS
BURLEY         HVY SNOW  28  23  81 W28G38    29.78S VSB 1/4 WCI  13
JEROME           N/A    N/A N/A N/A MISG      29.81R
TWIN FALLS     SNOW      25  22  88 SW26G36   29.82R VSB 1/4 WCI   9
$$

IDZ019>023-232100-
SOUTHEAST IDAHO


CITY           SKY/WX    TMP DP  RH WIND       PRES   REMARKS
IDAHO FALLS    LGT SNOW  26  25  96 SW17      29.72S VSB 3/4 WCI  13
POCATELLO      LGT SNOW  26  23  88 SW24      29.75R VSB 1   WCI  11
REXBURG        CLOUDY    29  25  85 SW9       29.70S WCI  20
$$

IDZ006-010-011-018-031-032-232100-
CENTRAL IDAHO MOUNTAINS


CITY           SKY/WX    TMP DP  RH WIND       PRES   REMARKS
MCCALL         CLOUDY    27  13  55 N14       29.82S WCI  16
HAILEY         CLOUDY    28  25  86 SE8       29.72S WCI  20
STANLEY          N/A     26  17  68 N8        29.70F WCI  18
SALMON         CLOUDY    34  18  51 N10       29.79F WCI  26
CHALLIS        LGT SNOW  28  22  78 N10       29.75S WCI  19
$$

IDZ002-004-006-007-026-232100-
NORTHERN IDAHO


CITY           SKY/WX    TMP DP  RH WIND       PRES   REMARKS
LEWISTON       PTSUNNY   41  28  60 NW9G17    30.09F
LOWELL           N/A     36  30  79 CALM      30.07S
COEUR D`ALENE  SUNNY     33  28  81 SW6       30.06F WCI  28
MULLAN PASS    CLOUDY    21  18  88 NW5       29.85F FOG     WCI  15
$$



USA.gov is the U.S. government's official web portal to all federal, state and local government web resources and services.